Amateur Radio Satellites - All Passes

Search period start: 21 May 2013 03:01
Search period end: 22 May 2013 03:01
Location: Kalispell, 48.1967°N, 114.3128°W

Satellite Date Start Highest point End Downlink Frequencies (MHz)
Time Altitude Azimuth
Oscar 19 21 May 03:04:38 03:09:29 38° 97° (E) 03:14:16 437.125 CW, 437.150 USB
KITSAT 1 21 May 03:13:44 03:20:45 31° 333° (NNW) 03:27:48 435.175 FM
AO-Echo 21 May 03:24:27 03:27:34 17° 90° (E) 03:30:43 ?
Oscar 16 21 May 03:43:28 03:48:42 87° 285° (WNW) 03:53:52 437.025 USB, Beacon 2401.1428
AO-27 21 May 03:47:54 03:53:10 77° 104° (ESE) 03:58:23 436.795 MHz FM
RS-15 21 May 03:51:22 04:01:34 44° 249° (WSW) 04:11:32 29.354 - 29.394 USB, Beacon 29.352 USB
ITAMSAT 1 21 May 03:55:03 04:00:19 86° 105° (ESE) 04:05:33 435.822 SSB
Gurwin Techsat 1B 21 May 04:02:47 04:06:01 16° 88° (E) 04:09:14 435.225 FM
ISS 21 May 04:28:54 04:31:44 26° 142° (SE) 04:34:36 145.800 FM
Uribyol 2 21 May 04:36:51 04:41:47 43° 293° (WNW) 04:46:42 436.500 FM
MaSat-1 21 May 04:43:44 04:49:55 38° 309° (NW) 04:54:59 437.345 MHz
Oscar 19 21 May 04:44:10 04:48:47 33° 296° (WNW) 04:53:21 437.125 CW, 437.150 USB
Uosat F 21 May 04:53:10 04:58:03 49° 100° (E) 05:02:55 435.120 FM
AO-Echo 21 May 05:02:09 05:06:49 63° 288° (WNW) 05:11:33 ?
AO-7 21 May 05:10:36 05:16:17 20° 87° (E) 05:21:56 29.400 - 29.500 MHz
KITSAT 1 21 May 05:13:03 05:19:04 22° 2° (N) 05:25:06 435.175 FM
STRAND 1 21 May 05:19:07 05:21:37 14° 54° (NE) 05:24:07 ?
TMSAT-1 21 May 05:20:38 05:25:48 49° 99° (E) 05:30:57 436.925 FM
Oscar 16 21 May 05:24:21 05:27:20 16° 305° (NW) 05:30:19 437.025 USB, Beacon 2401.1428
AO-27 21 May 05:28:34 05:32:07 19° 303° (WNW) 05:35:41 436.795 MHz FM
ITAMSAT 1 21 May 05:35:53 05:39:10 17° 304° (NW) 05:42:28 435.822 SSB
Gurwin Techsat 1B 21 May 05:41:19 05:46:39 80° 287° (WNW) 05:51:58 435.225 FM
ISS 21 May 06:04:55 06:08:15 73° 340° (NNW) 06:11:37 145.800 FM
Saudisat 1A 21 May 06:23:07 06:26:21 19° 112° (ESE) 06:29:37 436.775 MHz
MaSat-1 21 May 06:31:49 06:33:24 11° 329° (NNW) 06:34:53 437.345 MHz
Uosat F 21 May 06:32:30 06:36:37 26° 298° (WNW) 06:40:45 435.120 FM
STRAND 1 21 May 06:54:56 07:00:01 78° 73° (ENE) 07:05:08 ?
TMSAT-1 21 May 07:01:04 07:05:30 28° 298° (WNW) 07:09:56 436.925 FM
AO-7 21 May 07:01:55 07:10:21 82° 108° (ESE) 07:18:44 29.400 - 29.500 MHz
KITSAT 1 21 May 07:09:57 07:17:15 34° 31° (NNE) 07:24:31 435.175 FM
Gurwin Techsat 1B 21 May 07:22:58 07:25:50 15° 306° (NW) 07:28:41 435.225 FM
Hamsat 21 May 07:34:50 07:37:16 15° 89° (E) 07:39:41 145.90 MHz
ISS 21 May 07:42:01 07:45:15 44° 1° (N) 07:48:30 145.800 FM
Oscar 10/S400 21 May 07:54:11 10:58:51 43° 247° (WSW) 17:48:32 145.825 - 145.975 CW/USB, Beacon 145.810 USB
Saudisat 1A 21 May 08:01:02 08:05:36 68° 311° (NW) 08:10:14 436.775 MHz
PCSat 21 May 08:15:32 08:20:15 31° 111° (ESE) 08:25:00 145.825 MHz
STRAND 1 21 May 08:36:49 08:39:50 16° 271° (W) 08:42:52 ?
Sapphire 21 May 08:47:45 08:52:59 53° 117° (ESE) 08:58:15 437.095 MHz 1200 baud AX-25 AFSK
AO-7 21 May 08:55:29 09:02:23 30° 310° (NW) 09:09:17 29.400 - 29.500 MHz
KITSAT 1 21 May 09:05:28 09:13:39 88° 236° (SW) 09:21:48 435.175 FM
Hamsat 21 May 09:09:28 09:13:48 66° 286° (WNW) 09:18:07 145.90 MHz
SO-50 21 May 09:10:57 09:13:59 17° 111° (ESE) 09:16:59 436.795 FM
JAS-1B 21 May 09:15:04 09:21:12 52° 99° (E) 09:26:44 435.800 - 435.900 CW/SSB
SO-67 21 May 09:16:57 09:20:30 56° 100° (E) 09:24:01 435.3500 MHz FM
ISS 21 May 09:18:52 09:22:14 80° 20° (NNE) 09:25:37 145.800 FM
Saudisat 1A 21 May 09:42:57 09:46:09 18° 333° (NNW) 09:49:22 436.775 MHz
PCSat 21 May 09:58:14 10:03:29 50° 311° (NW) 10:08:48 145.825 MHz
JAS-2 21 May 10:14:22 10:19:43 23° 86° (E) 10:24:36 435.800 - 435.900 CW/SSB, 435.910 FM
Sapphire 21 May 10:31:47 10:36:40 33° 318° (NW) 10:41:35 437.095 MHz 1200 baud AX-25 AFSK
HO-68 21 May 10:46:11 10:53:02 46° 99° (E) 10:59:50 435.675 MHz FM
SO-50 21 May 10:49:16 10:54:04 80° 309° (NW) 10:58:48 436.795 FM
SO-67 21 May 10:51:47 10:53:33 13° 298° (WNW) 10:55:18 435.3500 MHz FM
ISS 21 May 10:55:57 10:58:42 23° 219° (SW) 11:01:27 145.800 FM
KITSAT 1 21 May 11:02:06 11:08:00 23° 257° (WSW) 11:13:54 435.175 FM
Oscar 11 21 May 11:03:25 11:07:27 35° 97° (E) 11:11:29 145.825 FM, Beacon 2401.500 USB
JAS-1B 21 May 11:06:13 11:11:34 29° 303° (WNW) 11:16:27 435.800 - 435.900 CW/SSB
Saudisat 1A 21 May 11:27:02 11:27:43 10° 357° (N) 11:28:23 436.775 MHz
MaSat-1 21 May 11:43:05 11:46:37 34° 50° (NE) 11:49:27 437.345 MHz
PCSat 21 May 11:44:57 11:48:15 16° 335° (NNW) 11:51:33 145.825 MHz
OPAL 21 May 11:51:19 11:56:09 44° 101° (E) 12:00:53 ?
JAS-2 21 May 11:58:26 12:05:39 76° 288° (WNW) 12:11:59 435.800 - 435.900 CW/SSB, 435.910 FM
Sapphire 21 May 12:19:29 12:21:51 13° 342° (NNW) 12:24:13 437.095 MHz 1200 baud AX-25 AFSK
UOSAT-12 21 May 12:20:53 12:24:33 25° 115° (ESE) 12:28:15 437.025 FM, 437.400 FM
SO-50 21 May 12:31:53 12:35:25 20° 330° (NNW) 12:38:55 436.795 FM
HO-68 21 May 12:34:03 12:40:43 44° 299° (WNW) 12:47:22 435.675 MHz FM
Oscar 11 21 May 12:39:53 12:43:35 27° 295° (WNW) 12:47:16 145.825 FM, Beacon 2401.500 USB
Uribyol 2 21 May 12:43:53 12:45:37 12° 51° (NE) 12:47:21 436.500 FM
Oscar 19 21 May 12:49:03 12:51:43 14° 54° (NE) 12:54:23 437.125 CW, 437.150 USB
Saudisat 1A 21 May 13:06:42 13:09:23 15° 22° (NNE) 13:12:03 436.775 MHz
Oscar 16 21 May 13:25:48 13:30:18 31° 63° (ENE) 13:34:49 437.025 USB, Beacon 2401.1428
MaSat-1 21 May 13:26:09 13:28:11 15° 258° (WSW) 13:30:00 437.345 MHz
OPAL 21 May 13:30:35 13:34:52 29° 300° (WNW) 13:39:06 ?
AO-27 21 May 13:31:41 13:35:57 27° 61° (ENE) 13:40:13 436.795 MHz FM
PCSat 21 May 13:33:42 13:34:10 10° 1° (N) 13:34:38 145.825 MHz
ITAMSAT 1 21 May 13:38:31 13:42:55 29° 62° (ENE) 13:47:21 435.822 SSB
JAS-2 21 May 13:44:42 13:49:27 19° 311° (NW) 13:53:53 435.800 - 435.900 CW/SSB, 435.910 FM
UOSAT-12 21 May 14:00:02 14:04:27 52° 314° (NW) 14:08:56 437.025 FM, 437.400 FM
Sapphire 21 May 14:06:35 14:07:54 11° 9° (N) 14:09:13 437.095 MHz 1200 baud AX-25 AFSK
SO-50 21 May 14:16:48 14:17:51 11° 355° (N) 14:18:54 436.795 FM
Uribyol 2 21 May 14:19:01 14:24:07 63° 71° (ENE) 14:29:17 436.500 FM
HO-68 21 May 14:24:21 14:26:38 12° 321° (NW) 14:28:56 435.675 MHz FM
Oscar 19 21 May 14:25:03 14:30:15 79° 73° (ENE) 14:35:29 437.125 CW, 437.150 USB
AO-7 21 May 14:26:53 14:30:08 13° 31° (NNE) 14:33:24 29.400 - 29.500 MHz
Uosat F 21 May 14:33:58 14:37:01 16° 56° (NE) 14:40:03 435.120 FM
AO-Echo 21 May 14:40:49 14:45:08 33° 66° (ENE) 14:49:23 ?
Saudisat 1A 21 May 14:45:44 14:50:12 48° 44° (NE) 14:54:33 436.775 MHz
Oscar 16 21 May 15:04:35 15:09:31 43° 262° (W) 15:14:30 437.025 USB, Beacon 2401.1428
TMSAT-1 21 May 15:07:35 15:11:10 19° 57° (ENE) 15:14:44 436.925 FM
AO-27 21 May 15:10:11 15:15:13 51° 260° (W) 15:20:17 436.795 MHz FM
PCSat 21 May 15:16:25 15:20:01 17° 28° (NNE) 15:23:35 145.825 MHz
ITAMSAT 1 21 May 15:17:19 15:22:15 45° 261° (W) 15:27:15 435.822 SSB
Gurwin Techsat 1B 21 May 15:27:00 15:31:48 36° 65° (ENE) 15:36:36 435.225 FM
UOSAT-12 21 May 15:42:53 15:45:40 16° 337° (NNW) 15:48:27 437.025 FM, 437.400 FM
Sapphire 21 May 15:49:08 15:53:28 23° 35° (NE) 15:57:46 437.095 MHz 1200 baud AX-25 AFSK
SO-50 21 May 15:57:57 16:00:30 14° 20° (NNE) 16:03:02 436.795 FM
Uribyol 2 21 May 16:00:20 16:04:05 20° 269° (W) 16:07:52 436.500 FM
Oscar 19 21 May 16:07:06 16:10:14 16° 272° (W) 16:13:24 437.125 CW, 437.150 USB
RS-15 21 May 16:08:39 16:17:36 26° 101° (ESE) 16:26:17 29.354 - 29.394 USB, Beacon 29.352 USB
Uosat F 21 May 16:10:10 16:15:11 85° 255° (WSW) 16:20:14 435.120 FM
AO-7 21 May 16:13:11 16:20:41 40° 55° (NE) 16:28:13 29.400 - 29.500 MHz
AO-Echo 21 May 16:19:34 16:23:57 33° 264° (W) 16:28:16 ?
Saudisat 1A 21 May 16:25:50 16:29:42 28° 244° (WSW) 16:33:30 436.775 MHz
TMSAT-1 21 May 16:45:12 16:50:30 79° 256° (WSW) 16:55:50 436.925 FM
PCSat 21 May 16:59:14 17:04:37 58° 51° (NE) 17:09:58 145.825 MHz
Gurwin Techsat 1B 21 May 17:06:52 17:11:45 37° 264° (W) 17:16:41 435.225 FM
UOSAT-12 21 May 17:27:19 17:27:47 10° 2° (N) 17:28:15 437.025 FM, 437.400 FM
Sapphire 21 May 17:32:09 17:37:38 89° 237° (WSW) 17:43:04 437.095 MHz 1200 baud AX-25 AFSK
SO-50 21 May 17:37:54 17:42:19 44° 43° (NE) 17:46:38 436.795 FM
Uosat F 21 May 17:52:55 17:54:47 12° 274° (W) 17:56:39 435.120 FM
AO-7 21 May 18:05:03 18:13:12 60° 257° (WSW) 18:21:26 29.400 - 29.500 MHz
JAS-1B 21 May 18:14:58 18:20:32 20° 51° (NE) 18:25:34 435.800 - 435.900 CW/SSB
RS-15 21 May 18:16:23 18:28:25 83° 124° (SE) 18:39:54 29.354 - 29.394 USB, Beacon 29.352 USB
TMSAT-1 21 May 18:29:26 18:31:19 12° 275° (W) 18:33:13 436.925 FM
Hamsat 21 May 18:32:46 18:35:33 17° 61° (ENE) 18:38:22 145.90 MHz
PCSat 21 May 18:43:15 18:47:43 26° 250° (WSW) 18:52:09 145.825 MHz
STRAND 1 21 May 19:02:49 19:06:34 20° 91° (E) 19:10:18 ?
UOSAT-12 21 May 19:06:45 19:09:51 17° 26° (NNE) 19:12:57 437.025 FM, 437.400 FM
Sapphire 21 May 19:17:13 19:20:17 15° 256° (WSW) 19:23:22 437.095 MHz 1200 baud AX-25 AFSK
SO-50 21 May 19:18:49 19:22:48 30° 243° (WSW) 19:26:43 436.795 FM
HO-68 21 May 19:35:52 19:39:04 14° 41° (NE) 19:42:17 435.675 MHz FM
SO-67 21 May 19:56:22 19:59:39 36° 71° (ENE) 20:02:58 435.3500 MHz FM
JAS-1B 21 May 20:01:01 20:10:04 70° 70° (ENE) 20:17:43 435.800 - 435.900 CW/SSB
AO-7 21 May 20:04:52 20:07:50 12° 278° (W) 20:10:50 29.400 - 29.500 MHz
Hamsat 21 May 20:07:05 20:11:14 57° 260° (W) 20:15:26 145.90 MHz
JAS-2 21 May 20:30:06 20:35:36 22° 51° (NE) 20:41:03 435.800 - 435.900 CW/SSB, 435.910 FM
RS-15 21 May 20:30:53 20:42:04 45° 332° (NNW) 20:52:48 29.354 - 29.394 USB, Beacon 29.352 USB
STRAND 1 21 May 20:41:07 20:46:12 62° 289° (WNW) 20:51:16 ?
UOSAT-12 21 May 20:46:20 20:50:55 63° 48° (NE) 20:55:29 437.025 FM, 437.400 FM
HO-68 21 May 21:18:23 21:25:11 51° 63° (ENE) 21:32:02 435.675 MHz FM
SO-67 21 May 21:30:47 21:33:16 18° 268° (W) 21:35:46 435.3500 MHz FM
OPAL 21 May 21:32:46 21:36:34 21° 56° (NE) 21:40:22 ?
JAS-1B 21 May 21:53:05 22:01:00 32° 267° (W) 22:07:58 435.800 - 435.900 CW/SSB
Oscar 11 21 May 22:02:13 22:06:19 45° 70° (ENE) 22:10:28 145.825 FM, Beacon 2401.500 USB
JAS-2 21 May 22:11:42 22:19:27 75° 71° (ENE) 22:27:16 435.800 - 435.900 CW/SSB, 435.910 FM
STRAND 1 21 May 22:22:53 22:24:26 11° 309° (NW) 22:25:59 ?
UOSAT-12 21 May 22:27:17 22:30:41 21° 247° (WSW) 22:34:05 437.025 FM, 437.400 FM
RS-15 21 May 22:47:48 22:58:02 34° 6° (N) 23:07:53 29.354 - 29.394 USB, Beacon 29.352 USB
HO-68 21 May 23:06:31 23:13:04 38° 263° (W) 23:19:40 435.675 MHz FM
OPAL 21 May 23:09:49 23:15:00 70° 255° (WSW) 23:20:10 ?
KITSAT 1 21 May 23:37:54 23:45:12 40° 111° (ESE) 23:52:33 435.175 FM
Oscar 11 21 May 23:39:31 23:42:47 21° 268° (W) 23:46:05 145.825 FM, Beacon 2401.500 USB
JAS-2 21 May 23:58:36 00:05:04 28° 271° (W) 00:11:39 435.800 - 435.900 CW/SSB, 435.910 FM
RS-15 22 May 01:02:15 01:13:22 57° 38° (NE) 01:24:04 29.354 - 29.394 USB, Beacon 29.352 USB
KITSAT 1 22 May 01:32:20 01:40:19 62° 313° (NW) 01:48:23 435.175 FM
MaSat-1 22 May 02:17:28 02:23:30 33° 110° (ESE) 02:28:37 437.345 MHz
Uribyol 2 22 May 02:29:15 02:32:40 17° 89° (E) 02:36:05 436.500 FM
Oscar 19 22 May 02:33:54 02:37:50 21° 91° (E) 02:41:44 437.125 CW, 437.150 USB

Developed and maintained by Chris Peat, Heavens-Above GmbH. Please read the updated FAQ before sending e-mail. Imprint. DLR
